W3EX Weather Reports


time (UTC)temp
C
wind
direction
speed
KPH
gust
KPH
rain 1hr
cm
rain 24hr
cm
rain mn
cm
humidity
%
barometer
mb
20260506153102 16 209 4.8 16.1 0.28 0.33 0.33 88 1005.6
20260506151502 16 196 4.8 11.3 0.18 0.18 0.18 87 1005.7
20260506150108 16 187 4.8 12.9 0.13 0.13 0.13 87 1005.6
20260506144501 16 223 4.8 8.0 0.10 0.10 0.10 85 1005.3
20260506143105 17 207 3.2 11.3 0.05 0.05 0.05 81 1005.5
20260506141603 18 244 9.7 19.3 0.00 0.00 0.00 76 1005.6
20260506140005 18 265 1.6 12.9 0.00 0.00 0.00 74 1005.5
20260506134502 18 247 6.4 14.5 0.00 0.00 0.00 73 1005.0
20260506133104 18 240 1.6 14.5 0.00 0.00 0.00 75 1005.4
20260506131502 18 283 8.0 17.7 0.00 0.00 0.00 74 1005.4
20260506130143 18 262 4.8 16.1 0.00 0.00 0.00 73 1005.7
20260506124502 18 179 4.8 17.7 0.00 0.00 0.00 72 1005.6
20260506123103 18 227 4.8 16.1 0.00 0.00 0.00 73 1005.6
20260506121604 18 184 6.4 14.5 0.00 0.00 0.00 74 1005.4
20260506120002 18 184 8.0 16.1 0.00 0.00 0.00 74 1005.4
20260506114602 17 193 4.8 20.9 0.00 0.00 0.00 75 1005.3
20260506113002 17 211 11.3 19.3 0.00 0.00 0.00 75 1005.1
20260506111602 17 210 4.8 14.5 0.00 0.00 0.00 75 1005.4
20260506110006 17 232 8.0 16.1 0.00 0.00 0.00 75 1005.1
20260506104503 17 244 9.7 16.1 0.00 0.00 0.00 75 1005.1
20260506103102 17 167 8.0 19.3 0.00 0.00 0.00 75 1004.9
20260506101502 17 209 11.3 19.3 0.00 0.00 0.00 75 1004.9
20260506100104 18 183 8.0 17.7 0.00 0.00 0.00 74 1004.9
20260506094507 18 198 8.0 17.7 0.00 0.00 0.00 74 1005.0
20260506093106 18 244 8.0 16.1 0.00 0.00 0.00 73 1004.8
20260506091502 18 215 9.7 17.7 0.00 0.00 0.00 72 1004.9
20260506084507 18 235 9.7 17.7 0.00 0.00 0.00 70 1005.0
20260506083103 19 194 6.4 24.1 0.00 0.00 0.00 70 1005.1
20260506073106 18 175 6.4 16.1 0.00 0.00 0.00 69 1005.2
20260506071502 19 207 6.4 16.1 0.00 0.00 0.00 68 1005.3
20260506070104 19 182 8.0 17.7 0.00 0.00 0.00 67 1005.2
20260506061502 19 157 4.8 14.5 0.00 0.00 0.00 65 1005.7
20260506044603 19 186 1.6 14.5 0.00 0.00 0.00 62 1006.2
20260506043102 19 182 6.4 12.9 0.00 0.00 0.00 62 1006.3
20260506041502 20 198 4.8 12.9 0.00 0.00 0.00 62 1006.2
20260506034501 20 211 4.8 14.5 0.00 0.00 0.00 61 1006.2
20260506033113 20 194 8.0 14.5 0.00 0.00 0.00 60 1006.0
20260506031502 20 194 6.4 17.7 0.00 0.00 0.00 57 1006.0
20260506024502 21 180 6.4 14.5 0.00 0.00 0.00 53 1005.9
20260506023102 21 198 11.3 19.3 0.00 0.00 0.00 52 1006.0
20260506021502 22 180 6.4 19.3 0.00 0.00 0.00 51 1005.9
20260506020103 22 217 4.8 14.5 0.00 0.00 0.00 49 1006.0
20260506014504 22 172 9.7 16.1 0.00 0.00 0.00 48 1005.8
20260506013102 22 184 6.4 16.1 0.00 0.00 0.00 46 1005.7
20260506011502 23 209 6.4 19.3 0.00 0.00 0.00 46 1005.6
20260506010003 23 196 4.8 16.1 0.00 0.00 0.00 45 1005.4
20260506004604 23 180 6.4 20.9 0.00 0.00 0.00 46 1005.3
20260506003003 23 207 6.4 16.1 0.00 0.00 0.00 45 1005.1
20260506001619 24 233 6.4 14.5 0.00 0.00 0.00 40 1004.9
20260506000010 24 194 6.4 16.1 0.00 0.00 0.00 40 1004.9
20260505234604 25 178 6.4 17.7 0.00 0.00 0.00 40 1004.7
20260505233002 25 169 4.8 16.1 0.00 0.00 0.00 40 1004.6
20260505231603 25 206 3.2 17.7 0.00 0.00 0.00 39 1004.6
20260505230002 25 223 4.8 37.0 0.00 0.00 0.00 37 1004.6
20260505224603 26 213 6.4 19.3 0.00 0.00 0.00 37 1004.5
20260505223007 26 220 6.4 17.7 0.00 0.00 0.00 36 1004.5
20260505221602 26 228 9.7 24.1 0.00 0.00 0.00 35 1004.4
20260505220006 26 230 11.3 20.9 0.00 0.00 0.00 35 1004.3
20260505214609 26 261 4.8 16.1 0.00 0.00 0.00 35 1004.5
20260505213002 26 114 4.8 17.7 0.00 0.00 0.00 34 1004.3
20260505211624 27 188 9.7 22.5 0.00 0.00 0.00 33 1004.2
20260505210006 27 255 8.0 37.0 0.00 0.00 0.00 33 1004.3
20260505204602 26 355 9.7 32.2 0.00 0.00 0.00 32 1004.3
20260505203102 27 222 4.8 41.8 0.00 0.00 0.00 34 1004.4
20260505201502 27 297 8.0 20.9 0.00 0.00 0.00 33 1004.3
20260505194504 27 180 6.4 24.1 0.00 0.00 0.00 33 1004.7
20260505193102 27 247 9.7 27.4 0.00 0.00 0.00 31 1004.6
20260505191503 27 225 9.7 27.4 0.00 0.00 0.00 31 1004.8
20260505190119 27 243 6.4 30.6 0.00 0.00 0.00 31 1004.9
20260505184502 27 180 11.3 27.4 0.00 0.00 0.00 37 1005.0
20260505183102 27 210 11.3 29.0 0.00 0.00 0.00 33 1005.2
20260505181502 27 277 6.4 35.4 0.00 0.00 0.00 35 1005.4
20260505174504 27 240 8.0 29.0 0.00 0.00 0.00 36 1005.6
20260505173103 27 190 8.0 16.1 0.00 0.00 0.00 39 1005.7
20260505171506 26 44 3.2 24.1 0.00 0.00 0.00 40 1005.6
20260505170114 27 201 8.0 24.1 0.00 0.00 0.00 39 1005.9
20260505164502 26 195 9.7 17.7 0.00 0.00 0.00 40 1006.0
20260505163111 26 210 3.2 24.1 0.00 0.00 0.00 45 1006.1
20260505161502 26 190 6.4 17.7 0.00 0.00 0.00 41 1006.1